CW4591 Weather Reports


Display with metric or nautical units.
time (UTC)temp
F
wind
direction
speed
MPH
gust
MPH
rain 1hr
in
rain 24hr
in
rain mn
in
humidity
%
barometer
mb
20260505001502 54 139 2.0 11.0 0.00 0.00 0.00 47 1009.1
20260504234558 55 175 3.0 10.0 0.00 0.00 0.00 46 1009.6
20260504233102 55 128 5.0 8.0 0.00 0.00 0.00 45 1010.0
20260504231553 55 157 4.0 9.0 0.00 0.00 0.00 45 1010.1
20260504230109 55 148 4.0 10.0 0.00 0.00 0.00 46 1010.6
20260504224600 55 178 1.0 7.0 0.00 0.00 0.00 47 1010.8
20260504223047 56 133 1.0 7.0 0.00 0.00 0.00 48 1011.0
20260504221544 56 154 0.0 8.0 0.00 0.00 0.00 48 1011.3
20260504220051 55 162 2.0 10.0 0.00 0.00 0.00 47 1011.4
20260504214545 55 223 3.0 7.0 0.00 0.00 0.00 48 1011.8
20260504213040 55 131 2.0 10.0 0.00 0.00 0.00 47 1011.9
20260504211538 54 195 4.0 11.0 0.00 0.00 0.00 48 1012.1
20260504210050 53 170 5.0 11.0 0.00 0.00 0.00 49 1012.1
20260504204540 53 166 4.0 10.0 0.00 0.00 0.00 49 1012.4
20260504203034 54 181 1.0 13.0 0.00 0.00 0.00 48 1012.7
20260504201531 56 184 5.0 11.0 0.00 0.00 0.00 44 1012.8
20260504200040 56 152 6.0 13.0 0.00 0.00 0.00 47 1012.9
20260504194527 55 150 6.0 13.0 0.00 0.00 0.00 46 1013.1
20260504193025 55 123 4.0 12.0 0.00 0.00 0.00 47 1013.3
20260504191522 54 108 2.0 12.0 0.00 0.00 0.00 49 1013.4
20260504190021 54 185 5.0 13.0 0.00 0.00 0.00 48 1013.6
20260504184527 53 149 4.0 11.0 0.00 0.00 0.00 50 1013.8
20260504183022 52 164 2.0 9.0 0.00 0.00 0.00 53 1014.0
20260504181510 51 125 2.0 10.0 0.00 0.00 0.00 54 1014.2
20260504180006 50 139 5.0 12.0 0.00 0.00 0.00 55 1014.4
20260504174501 48 359 1.0 10.0 0.00 0.00 0.00 60 1014.4
20260504173057 46 135 4.0 8.0 0.00 0.00 0.00 64 1014.6
20260504171554 44 152 4.0 8.0 0.00 0.00 0.00 67 1014.8
20260504081543 37 124 1.0 7.0 0.00 0.00 0.00 83 1017.1
20260504044530 43 154 3.0 8.0 0.00 0.00 0.00 58 1017.4
20260504043039 44 118 2.0 8.0 0.00 0.00 0.00 57 1017.5
20260504041532 44 152 2.0 7.0 0.00 0.00 0.00 55 1017.5
20260504040028 44 139 4.0 8.0 0.00 0.00 0.00 53 1017.5
20260504034528 45 154 3.0 9.0 0.00 0.00 0.00 52 1017.5
20260504033027 45 191 5.0 8.0 0.00 0.00 0.00 50 1017.7
20260504031527 46 208 5.0 10.0 0.00 0.00 0.00 50 1017.7
20260504030031 46 170 3.0 8.0 0.00 0.00 0.00 49 1017.8
20260504024525 46 179 2.0 12.0 0.00 0.00 0.00 49 1017.9
20260504023025 46 123 3.0 9.0 0.00 0.00 0.00 47 1017.9
20260504021523 46 226 4.0 12.0 0.00 0.00 0.00 47 1017.8
20260504020033 46 162 3.0 12.0 0.00 0.00 0.00 46 1017.7
20260504014522 47 174 4.0 12.0 0.00 0.00 0.00 44 1017.8
20260504013025 47 159 4.0 10.0 0.00 0.00 0.00 43 1017.8
20260504011522 47 137 4.0 13.0 0.00 0.00 0.00 42 1018.0
20260504010021 48 184 5.0 9.0 0.00 0.00 0.00 43 1018.1
20260504004536 47 222 4.0 7.0 0.00 0.00 0.00 43 1018.2
20260504003021 47 203 3.0 11.0 0.00 0.00 0.00 42 1018.3